Time,TemperatureF,DewpointF,PressureIn,WindDirection,WindDirectionDegrees,WindSpeedMPH,WindSpeedGustMPH,Humidity,HourlyPrecipIn,Conditions,Clouds,dailyrainin,SolarRadiationWatts/m^2,SoftwareType,DateUTC
2013-03-30 00:00:00,40.0,26.4,30.12,ESE,113,0.0,2.0,58,0.00,,OVC090,0.00,0.00,VWS V14.01,2013-03-30 05:00:00,
2013-03-30 00:05:00,40.0,26.4,30.12,ESE,113,1.0,2.0,58,0.00,,OVC090,0.00,0.00,VWS V14.01,2013-03-30 05:05:00,
2013-03-30 00:10:00,39.9,26.8,30.12,ESE,114,0.0,2.0,59,0.00,,OVC090,0.00,0.00,VWS V14.01,2013-03-30 05:10:00,
2013-03-30 00:15:00,39.8,26.7,30.11,SE,132,0.0,2.0,59,0.00,,OVC090,0.00,0.00,VWS V14.01,2013-03-30 05:15:00,
2013-03-30 00:20:00,39.9,26.8,30.11,SE,132,0.0,2.0,59,0.00,,OVC090,0.00,0.00,VWS V14.01,2013-03-30 05:20:00,
2013-03-30 00:25:00,39.8,26.7,30.11,SE,132,0.0,2.0,59,0.00,,OVC090,0.00,0.00,VWS V14.01,2013-03-30 05:25:00,
2013-03-30 00:30:00,39.8,27.1,30.11,SE,132,0.0,1.0,60,0.00,,OVC090,0.00,0.00,VWS V14.01,2013-03-30 05:30:00,
2013-03-30 00:35:00,39.8,26.7,30.11,SE,132,1.0,1.0,59,0.00,,OVC090,0.00,0.00,VWS V14.01,2013-03-30 05:35:00,
2013-03-30 00:40:00,39.8,26.7,30.11,SSE,162,0.0,3.0,59,0.00,,OVC090,0.00,0.00,VWS V14.01,2013-03-30 05:40:00,
2013-03-30 00:45:00,39.8,27.1,30.11,SE,130,1.0,3.0,60,0.00,,OVC090,0.00,0.00,VWS V14.01,2013-03-30 05:45:00,
2013-03-30 00:50:00,39.9,26.8,30.10,SE,130,0.0,3.0,59,0.00,,OVC090,0.00,0.00,VWS V14.01,2013-03-30 05:50:00,
2013-03-30 00:56:00,40.0,26.8,30.10,SE,130,0.0,3.0,59,0.00,,OVC090,0.00,0.00,VWS V14.01,2013-03-30 05:56:00,
2013-03-30 01:01:00,39.9,27.2,30.10,SE,130,0.0,0.0,60,0.00,,OVC090,0.00,0.00,VWS V14.01,2013-03-30 06:01:00,
2013-03-30 01:06:00,40.0,26.8,30.10,SE,130,0.0,2.0,59,0.00,,OVC090,0.00,0.00,VWS V14.01,2013-03-30 06:06:00,
2013-03-30 01:11:00,39.9,27.2,30.10,SE,130,1.0,2.0,60,0.00,,OVC090,0.00,0.00,VWS V14.01,2013-03-30 06:11:00,
2013-03-30 01:16:00,40.0,27.2,30.10,SE,130,1.0,3.0,60,0.00,,OVC090,0.00,0.00,VWS V14.01,2013-03-30 06:16:00,
2013-03-30 01:21:00,40.0,27.2,30.10,SE,130,0.0,3.0,60,0.00,,OVC090,0.00,0.00,VWS V14.01,2013-03-30 06:21:00,
2013-03-30 01:26:00,39.9,27.2,30.09,SE,130,1.0,3.0,60,0.00,,OVC090,0.00,0.00,VWS V14.01,2013-03-30 06:26:00,
2013-03-30 01:31:00,39.9,27.2,30.09,ESE,111,2.0,3.0,60,0.00,,OVC090,0.00,0.00,VWS V14.01,2013-03-30 06:31:00,
2013-03-30 01:36:00,39.9,27.2,30.09,ESE,111,1.0,3.0,60,0.00,,OVC090,0.00,0.00,VWS V14.01,2013-03-30 06:36:00,
2013-03-30 01:41:00,39.8,27.1,30.09,SSE,161,0.0,3.0,60,0.00,,OVC090,0.00,0.00,VWS V14.01,2013-03-30 06:41:00,
2013-03-30 01:46:00,39.8,27.1,30.09,SSE,154,0.0,3.0,60,0.00,,OVC090,0.00,0.00,VWS V14.01,2013-03-30 06:46:00,
2013-03-30 01:51:00,39.9,27.2,30.08,SE,136,2.0,3.0,60,0.00,,OVC090,0.00,0.00,VWS V14.01,2013-03-30 06:51:00,
2013-03-30 01:56:00,40.0,27.2,30.08,ESE,121,1.0,3.0,60,0.00,,OVC090,0.00,0.00,VWS V14.01,2013-03-30 06:56:00,
2013-03-30 02:01:00,40.0,27.2,30.08,SE,127,1.0,2.0,60,0.00,,OVC090,0.00,0.00,VWS V14.01,2013-03-30 07:01:00,
2013-03-30 02:07:00,40.1,27.4,30.08,SE,127,1.0,3.0,60,0.00,,OVC090,0.00,0.00,VWS V14.01,2013-03-30 07:07:00,
2013-03-30 02:12:00,40.1,27.4,30.08,SE,127,1.0,3.0,60,0.00,,OVC090,0.00,0.00,VWS V14.01,2013-03-30 07:12:00,
2013-03-30 02:17:00,40.1,27.4,30.08,SE,127,0.0,3.0,60,0.00,,OVC090,0.00,0.00,VWS V14.01,2013-03-30 07:17:00,
2013-03-30 02:22:00,40.0,27.6,30.08,ESE,120,2.0,3.0,61,0.00,,OVC090,0.00,0.00,VWS V14.01,2013-03-30 07:22:00,
2013-03-30 02:27:00,40.1,27.8,30.07,ESE,123,1.0,4.0,61,0.00,,OVC090,0.00,0.00,VWS V14.01,2013-03-30 07:27:00,
2013-03-30 02:32:00,40.2,27.8,30.07,ESE,123,0.0,3.0,61,0.00,,OVC090,0.00,0.00,VWS V14.01,2013-03-30 07:32:00,
2013-03-30 02:37:00,40.3,28.3,30.07,ESE,123,0.0,3.0,62,0.00,,OVC090,0.00,0.00,VWS V14.01,2013-03-30 07:37:00,
2013-03-30 02:42:00,40.3,28.3,30.07,ESE,123,0.0,3.0,62,0.00,,OVC090,0.00,0.00,VWS V14.01,2013-03-30 07:42:00,
2013-03-30 02:47:00,40.4,28.8,30.07,ESE,123,1.0,3.0,63,0.00,,OVC090,0.00,0.00,VWS V14.01,2013-03-30 07:47:00,
2013-03-30 02:52:00,40.0,29.6,30.06,ESE,123,2.0,3.0,66,0.00,,OVC090,0.00,0.00,VWS V14.01,2013-03-30 07:52:00,
2013-03-30 02:57:00,39.7,29.7,30.06,ESE,123,0.0,3.0,67,0.00,,OVC090,0.00,0.00,VWS V14.01,2013-03-30 07:57:00,
2013-03-30 03:02:00,39.4,29.7,30.05,ESE,123,1.0,2.0,68,0.00,,OVC065,0.00,0.00,VWS V14.01,2013-03-30 08:02:00,
2013-03-30 03:07:00,39.0,29.7,30.05,ESE,123,3.0,3.0,69,0.00,,OVC065,0.00,0.00,VWS V14.01,2013-03-30 08:07:00,
2013-03-30 03:12:00,38.9,29.2,30.05,SE,124,4.0,4.0,68,0.00,,OVC065,0.00,0.00,VWS V14.01,2013-03-30 08:12:00,
2013-03-30 03:17:00,39.1,29.1,30.05,SE,131,1.0,4.0,67,0.00,,OVC065,0.00,0.00,VWS V14.01,2013-03-30 08:17:00,
2013-03-30 03:22:00,39.2,29.2,30.04,SE,132,0.0,4.0,67,0.00,,OVC065,0.00,0.00,VWS V14.01,2013-03-30 08:22:00,
2013-03-30 03:27:00,39.3,29.3,30.04,SE,132,0.0,4.0,67,0.00,,OVC065,0.00,0.00,VWS V14.01,2013-03-30 08:27:00,
2013-03-30 03:32:00,39.4,29.4,30.04,SE,132,0.0,1.0,67,0.00,,OVC065,0.00,0.00,VWS V14.01,2013-03-30 08:32:00,
2013-03-30 03:37:00,39.4,29.4,30.03,SE,132,1.0,2.0,67,0.00,,OVC065,0.00,0.00,VWS V14.01,2013-03-30 08:37:00,
2013-03-30 03:42:00,39.4,29.4,30.03,SE,132,2.0,3.0,67,0.00,,OVC065,0.00,0.00,VWS V14.01,2013-03-30 08:42:00,
2013-03-30 03:47:00,39.5,29.5,30.02,SE,142,1.0,3.0,67,0.00,,OVC065,0.00,0.00,VWS V14.01,2013-03-30 08:47:00,
2013-03-30 03:52:00,39.5,29.5,30.02,ESE,120,1.0,3.0,67,0.00,,OVC065,0.00,0.00,VWS V14.01,2013-03-30 08:52:00,
2013-03-30 03:57:00,39.5,29.5,30.02,SE,140,1.0,3.0,67,0.00,,OVC065,0.00,0.00,VWS V14.01,2013-03-30 08:57:00,
2013-03-30 04:02:00,39.5,29.8,30.02,SE,140,3.0,3.0,68,0.00,,OVC110,0.00,0.00,VWS V14.01,2013-03-30 09:02:00,
2013-03-30 04:07:00,39.5,29.8,30.02,SE,144,0.0,4.0,68,0.00,,OVC110,0.00,0.00,VWS V14.01,2013-03-30 09:07:00,
2013-03-30 04:12:00,39.6,29.9,30.02,SE,131,1.0,4.0,68,0.00,,OVC110,0.00,0.00,VWS V14.01,2013-03-30 09:12:00,
2013-03-30 04:17:00,39.9,29.9,30.02,SSE,163,2.0,4.0,67,0.00,,OVC110,0.00,0.00,VWS V14.01,2013-03-30 09:17:00,
2013-03-30 04:22:00,40.1,30.4,30.02,SE,145,2.0,4.0,68,0.00,,OVC110,0.00,0.00,VWS V14.01,2013-03-30 09:22:00,
2013-03-30 04:27:00,40.3,30.6,30.02,South,171,1.0,4.0,68,0.00,,OVC110,0.00,0.00,VWS V14.01,2013-03-30 09:27:00,
2013-03-30 04:32:00,40.4,30.7,30.01,SSE,149,1.0,3.0,68,0.00,,OVC110,0.00,0.00,VWS V14.01,2013-03-30 09:32:00,
2013-03-30 04:34:00,40.3,31.0,30.01,SSE,150,2.0,3.0,69,0.00,,OVC110,0.00,0.00,VWS V14.01,2013-03-30 09:34:00,
2013-03-30 04:39:00,40.4,30.7,30.00,SE,142,2.0,4.0,68,0.00,,OVC110,0.00,0.00,VWS V14.01,2013-03-30 09:39:00,
2013-03-30 04:44:00,40.4,31.0,30.00,SE,146,3.0,4.0,69,0.00,,OVC110,0.00,0.00,VWS V14.01,2013-03-30 09:44:00,
2013-03-30 04:49:00,40.3,30.6,30.00,SE,146,2.0,4.0,68,0.00,,OVC110,0.00,0.00,VWS V14.01,2013-03-30 09:49:00,
2013-03-30 04:54:00,40.4,31.0,30.00,SSE,161,1.0,5.0,69,0.00,,OVC110,0.00,0.00,VWS V14.01,2013-03-30 09:54:00,
2013-03-30 04:59:00,40.4,30.7,29.99,SSE,155,2.0,5.0,68,0.00,,OVC110,0.00,0.00,VWS V14.01,2013-03-30 09:59:00,
2013-03-30 05:04:00,40.5,30.8,29.99,SE,132,1.0,5.0,68,0.00,,OVC075,0.00,0.00,VWS V14.01,2013-03-30 10:04:00,
2013-03-30 05:09:00,40.6,30.9,29.99,ESE,115,2.0,5.0,68,0.00,,OVC075,0.00,0.00,VWS V14.01,2013-03-30 10:09:00,
2013-03-30 05:14:00,40.7,31.0,29.99,South,184,0.0,5.0,68,0.00,,OVC075,0.00,0.00,VWS V14.01,2013-03-30 10:14:00,
2013-03-30 05:19:00,40.8,30.7,29.99,SE,128,0.0,5.0,67,0.00,,OVC075,0.00,0.00,VWS V14.01,2013-03-30 10:19:00,
2013-03-30 05:24:00,40.7,30.6,29.98,South,186,0.0,5.0,67,0.00,,OVC075,0.00,0.00,VWS V14.01,2013-03-30 10:24:00,
2013-03-30 05:29:00,40.7,30.6,29.98,South,186,0.0,5.0,67,0.00,,OVC075,0.00,0.00,VWS V14.01,2013-03-30 10:29:00,
2013-03-30 05:34:00,40.8,31.1,29.98,ESE,113,2.0,3.0,68,0.00,,OVC075,0.00,0.00,VWS V14.01,2013-03-30 10:34:00,
2013-03-30 05:39:00,40.7,31.0,29.97,East,80,0.0,3.0,68,0.00,,OVC075,0.00,0.00,VWS V14.01,2013-03-30 10:39:00,
2013-03-30 05:44:00,40.6,30.9,29.97,SE,136,1.0,3.0,68,0.00,,OVC075,0.00,0.00,VWS V14.01,2013-03-30 10:44:00,
2013-03-30 05:49:00,40.7,31.0,29.97,SE,136,0.0,3.0,68,0.00,,OVC075,0.00,0.00,VWS V14.01,2013-03-30 10:49:00,
2013-03-30 05:54:00,40.8,31.1,29.97,SE,136,0.0,3.0,68,0.00,,OVC075,0.00,0.00,VWS V14.01,2013-03-30 10:54:00,
2013-03-30 05:59:00,40.9,31.2,29.97,SE,134,0.0,3.0,68,0.00,,OVC075,0.00,0.00,VWS V14.01,2013-03-30 10:59:00,
2013-03-30 06:04:00,40.9,31.2,29.96,South,180,1.0,4.0,68,0.00,,OVC080,0.00,0.00,VWS V14.01,2013-03-30 11:04:00,
2013-03-30 06:09:00,40.9,31.5,29.96,South,181,1.0,5.0,69,0.00,,OVC080,0.00,0.00,VWS V14.01,2013-03-30 11:09:00,
2013-03-30 06:14:00,40.9,31.5,29.96,South,178,1.0,5.0,69,0.00,,OVC080,0.00,0.00,VWS V14.01,2013-03-30 11:14:00,
2013-03-30 06:19:00,40.9,31.5,29.97,South,190,7.0,7.0,69,0.00,,OVC080,0.00,0.00,VWS V14.01,2013-03-30 11:19:00,
2013-03-30 06:24:00,41.1,31.4,29.96,SSE,167,4.0,10.0,68,0.00,,OVC080,0.00,0.00,VWS V14.01,2013-03-30 11:24:00,
2013-03-30 06:29:00,41.2,31.5,29.96,SSE,160,2.0,10.0,68,0.00,,OVC080,0.00,0.00,VWS V14.01,2013-03-30 11:29:00,
2013-03-30 06:34:00,41.2,31.5,29.96,South,180,4.0,9.0,68,0.00,,OVC080,0.00,0.00,VWS V14.01,2013-03-30 11:34:00,
2013-03-30 06:39:00,41.2,31.8,29.96,SSE,167,2.0,9.0,69,0.00,,OVC080,0.00,0.00,VWS V14.01,2013-03-30 11:39:00,
2013-03-30 06:44:00,41.1,32.4,29.96,South,184,3.0,9.0,71,0.00,,OVC080,0.00,0.00,VWS V14.01,2013-03-30 11:44:00,
2013-03-30 06:49:00,40.8,32.5,29.96,SSE,165,5.0,11.0,72,0.00,,OVC080,0.00,0.00,VWS V14.01,2013-03-30 11:49:00,
2013-03-30 06:54:00,40.4,33.1,29.95,South,183,5.0,11.0,75,0.00,,OVC080,0.00,0.00,VWS V14.01,2013-03-30 11:54:00,
2013-03-30 06:59:00,40.0,33.4,29.95,South,181,6.0,11.0,77,0.00,,OVC080,0.00,0.00,VWS V14.01,2013-03-30 11:59:00,
2013-03-30 07:04:00,39.7,33.4,29.95,South,186,8.0,10.0,78,0.00,,-RA,0.00,0.00,VWS V14.01,2013-03-30 12:04:00,
2013-03-30 07:09:00,39.4,33.8,29.95,South,175,4.0,11.0,80,0.00,,-RA,0.00,0.00,VWS V14.01,2013-03-30 12:09:00,
2013-03-30 07:14:00,39.0,34.0,29.95,South,177,6.0,11.0,82,0.00,,-RA,0.00,0.00,VWS V14.01,2013-03-30 12:14:00,
2013-03-30 07:19:00,38.8,34.1,29.95,SSE,161,3.0,11.0,83,0.00,,-RA,0.00,0.00,VWS V14.01,2013-03-30 12:19:00,
2013-03-30 07:24:00,38.6,34.2,29.94,SSE,155,3.0,11.0,84,0.00,,-RA,0.00,0.00,VWS V14.01,2013-03-30 12:24:00,
2013-03-30 07:29:00,38.4,34.0,29.94,South,182,7.0,11.0,84,0.00,,-RA,0.00,0.00,VWS V14.01,2013-03-30 12:29:00,
2013-03-30 07:34:00,38.3,34.2,29.93,South,171,5.0,11.0,85,0.00,,-RA,0.00,0.00,VWS V14.01,2013-03-30 12:34:00,
2013-03-30 07:39:00,38.2,34.1,29.93,SSE,167,4.0,11.0,85,0.00,,-RA,0.00,0.00,VWS V14.01,2013-03-30 12:39:00,
2013-03-30 07:44:00,38.0,34.2,29.93,SSE,153,3.0,11.0,86,0.00,,-RA,0.00,5.00,VWS V14.01,2013-03-30 12:44:00,
2013-03-30 07:49:00,37.9,34.1,29.92,SSW,211,7.0,11.0,86,0.00,,-RA,0.00,9.00,VWS V14.01,2013-03-30 12:49:00,
2013-03-30 07:54:00,37.9,34.1,29.92,South,173,3.0,16.0,86,0.00,,-RA,0.00,11.00,VWS V14.01,2013-03-30 12:54:00,
2013-03-30 07:59:00,37.8,34.3,29.92,SE,126,2.0,16.0,87,0.00,,-RA,0.00,9.00,VWS V14.01,2013-03-30 12:59:00,
2013-03-30 08:04:00,37.7,34.2,29.91,South,186,4.0,8.0,87,0.00,,RA,0.00,7.00,VWS V14.01,2013-03-30 13:04:00,
2013-03-30 08:09:00,37.7,34.2,29.91,South,190,6.0,10.0,87,0.00,,RA,0.00,7.00,VWS V14.01,2013-03-30 13:09:00,
2013-03-30 08:14:00,37.6,34.4,29.91,South,178,6.0,10.0,88,0.00,,RA,0.00,7.00,VWS V14.01,2013-03-30 13:14:00,
2013-03-30 08:19:00,37.6,34.4,29.91,SSE,163,2.0,10.0,88,0.00,,RA,0.00,7.00,VWS V14.01,2013-03-30 13:19:00,
2013-03-30 08:24:00,37.6,34.4,29.90,South,170,3.0,10.0,88,0.00,,RA,0.00,9.00,VWS V14.01,2013-03-30 13:24:00,
2013-03-30 08:29:00,37.6,34.7,29.91,South,183,3.0,10.0,89,0.00,,RA,0.00,7.00,VWS V14.01,2013-03-30 13:29:00,
2013-03-30 08:34:00,37.7,34.8,29.91,South,178,5.0,11.0,89,0.00,,RA,0.00,5.00,VWS V14.01,2013-03-30 13:34:00,
2013-03-30 08:39:00,37.8,34.9,29.90,South,179,7.0,11.0,89,0.00,,RA,0.00,5.00,VWS V14.01,2013-03-30 13:39:00,
2013-03-30 08:44:00,37.7,34.8,29.90,SSE,159,2.0,12.0,89,0.00,,RA,0.00,9.00,VWS V14.01,2013-03-30 13:44:00,
2013-03-30 08:49:00,37.8,34.9,29.90,SSE,157,4.0,12.0,89,0.00,,RA,0.00,11.00,VWS V14.01,2013-03-30 13:49:00,
2013-03-30 08:54:00,37.8,34.9,29.89,SSE,164,3.0,12.0,89,0.00,,RA,0.00,9.00,VWS V14.01,2013-03-30 13:54:00,
2013-03-30 08:59:00,37.8,34.9,29.89,South,173,10.0,13.0,89,0.00,,RA,0.00,5.00,VWS V14.01,2013-03-30 13:59:00,
2013-03-30 09:04:00,37.9,35.2,29.89,South,175,6.0,12.0,90,0.00,,-RA,0.00,11.00,VWS V14.01,2013-03-30 14:04:00,
2013-03-30 09:09:00,37.9,35.0,29.89,South,186,10.0,13.0,89,0.00,,-RA,0.00,16.00,VWS V14.01,2013-03-30 14:09:00,
2013-03-30 09:14:00,37.9,35.0,29.88,SSE,165,4.0,13.0,89,0.00,,-RA,0.00,16.00,VWS V14.01,2013-03-30 14:14:00,
2013-03-30 09:19:00,38.0,35.0,29.89,South,176,11.0,13.0,89,0.00,,-RA,0.00,26.00,VWS V14.01,2013-03-30 14:19:00,
2013-03-30 09:24:00,38.0,35.0,29.88,SSE,161,5.0,13.0,89,0.00,,-RA,0.00,25.00,VWS V14.01,2013-03-30 14:24:00,
2013-03-30 09:29:00,37.9,35.2,29.88,SE,145,3.0,13.0,90,0.00,,-RA,0.00,16.00,VWS V14.01,2013-03-30 14:29:00,
2013-03-30 09:34:00,37.9,35.2,29.88,South,182,7.0,12.0,90,0.00,,-RA,0.00,12.00,VWS V14.01,2013-03-30 14:34:00,
2013-03-30 09:39:00,38.0,35.3,29.88,SSE,154,4.0,14.0,90,0.00,,-RA,0.00,25.00,VWS V14.01,2013-03-30 14:39:00,
2013-03-30 09:44:00,37.9,35.2,29.88,SE,146,4.0,14.0,90,0.00,,-RA,0.00,18.00,VWS V14.01,2013-03-30 14:44:00,
2013-03-30 09:49:00,37.9,35.2,29.87,South,175,4.0,14.0,90,0.00,,-RA,0.00,19.00,VWS V14.01,2013-03-30 14:49:00,
2013-03-30 09:54:00,37.9,35.2,29.87,South,169,12.0,14.0,90,0.00,,-RA,0.00,32.00,VWS V14.01,2013-03-30 14:54:00,
2013-03-30 09:59:00,38.0,35.3,29.86,South,176,8.0,16.0,90,0.00,,-RA,0.00,42.00,VWS V14.01,2013-03-30 14:59:00,
2013-03-30 10:04:00,38.0,35.3,29.87,South,183,7.0,12.0,90,0.00,, +RA,0.00,23.00,VWS V14.01,2013-03-30 15:04:00,
2013-03-30 10:09:00,38.0,35.3,29.87,South,173,11.0,14.0,90,0.00,, +RA,0.00,21.00,VWS V14.01,2013-03-30 15:09:00,
2013-03-30 10:15:00,38.1,35.4,29.86,South,173,4.0,17.0,90,0.00,, +RA,0.00,21.00,VWS V14.01,2013-03-30 15:15:00,
2013-03-30 10:20:00,38.1,35.4,29.86,South,189,14.0,17.0,90,0.00,,RA,0.00,25.00,VWS V14.01,2013-03-30 15:20:00,
2013-03-30 10:25:00,38.1,35.4,29.86,South,170,7.0,17.0,90,0.00,,RA,0.00,25.00,VWS V14.01,2013-03-30 15:25:00,
2013-03-30 10:30:00,38.1,35.4,29.86,South,188,12.0,12.0,90,0.00,,RA,0.00,39.00,VWS V14.01,2013-03-30 15:30:00,
2013-03-30 10:35:00,38.2,35.5,29.86,SSW,195,8.0,17.0,90,0.00,,RA,0.00,26.00,VWS V14.01,2013-03-30 15:35:00,
2013-03-30 10:40:00,38.2,35.5,29.86,South,173,7.0,17.0,90,0.00,,RA,0.00,25.00,VWS V14.01,2013-03-30 15:40:00,
2013-03-30 10:45:00,38.3,35.6,29.85,South,173,6.0,20.0,90,0.00,,RA,0.00,32.00,VWS V14.01,2013-03-30 15:45:00,
2013-03-30 10:50:00,38.3,35.6,29.85,South,171,10.0,20.0,90,0.00,,RA,0.00,37.00,VWS V14.01,2013-03-30 15:50:00,
2013-03-30 10:55:00,38.4,35.7,29.86,South,186,9.0,20.0,90,0.00,,RA,0.00,28.00,VWS V14.01,2013-03-30 15:55:00,
2013-03-30 11:00:00,38.6,35.9,29.86,South,182,10.0,10.0,90,0.00,,RA,0.00,44.00,VWS V14.01,2013-03-30 16:00:00,
2013-03-30 11:05:00,38.5,35.8,29.85,South,187,12.0,12.0,90,0.00,,-RA,0.00,26.00,VWS V14.01,2013-03-30 16:05:00,
2013-03-30 11:22:00,38.8,35.8,29.85,SSW,211,12.0,12.0,89,0.00,,,0.00,33.00,VWS V14.01,2013-03-30 16:22:00,
2013-03-30 11:27:00,38.9,36.2,29.85,SSW,196,8.0,12.0,90,0.00,,,0.00,23.00,VWS V14.01,2013-03-30 16:27:00,
2013-03-30 11:32:00,38.8,36.1,29.85,South,186,10.0,11.0,90,0.00,,,0.00,25.00,VWS V14.01,2013-03-30 16:32:00,
2013-03-30 11:37:00,38.9,36.2,29.85,South,190,8.0,13.0,90,0.00,,,0.00,40.00,VWS V14.01,2013-03-30 16:37:00,
2013-03-30 11:42:00,38.9,36.2,29.85,South,185,10.0,13.0,90,0.00,,-RA,0.00,46.00,VWS V14.01,2013-03-30 16:42:00,
2013-03-30 11:47:00,39.2,36.2,29.85,SW,226,8.0,13.0,89,0.00,,-RA,0.00,28.00,VWS V14.01,2013-03-30 16:47:00,
2013-03-30 11:52:00,39.4,36.4,29.85,SW,231,9.0,13.0,89,0.00,,-RA,0.00,28.00,VWS V14.01,2013-03-30 16:52:00,
2013-03-30 11:57:00,39.5,36.5,29.85,SW,236,9.0,13.0,89,0.00,,-RA,0.00,23.00,VWS V14.01,2013-03-30 16:57:00,
2013-03-30 12:02:00,39.6,36.6,29.85,WSW,240,6.0,9.0,89,0.00,,-RA,0.00,26.00,VWS V14.01,2013-03-30 17:02:00,
2013-03-30 12:07:00,39.6,36.6,29.85,WSW,256,3.0,9.0,89,0.00,,-RA,0.00,26.00,VWS V14.01,2013-03-30 17:07:00,
2013-03-30 12:12:00,39.5,36.8,29.85,SSW,207,7.0,9.0,90,0.00,,-RA,0.00,26.00,VWS V14.01,2013-03-30 17:12:00,
2013-03-30 12:17:00,39.5,36.5,29.85,SW,219,3.0,9.0,89,0.00,,-RA,0.00,32.00,VWS V14.01,2013-03-30 17:17:00,
2013-03-30 12:22:00,39.4,36.4,29.85,SSW,206,6.0,9.0,89,0.00,,RA,0.00,42.00,VWS V14.01,2013-03-30 17:22:00,
2013-03-30 12:27:00,39.3,36.3,29.85,SW,214,6.0,9.0,89,0.00,,RA,0.00,35.00,VWS V14.01,2013-03-30 17:27:00,
2013-03-30 12:32:00,39.3,36.3,29.84,SW,227,4.0,8.0,89,0.00,,RA,0.00,46.00,VWS V14.01,2013-03-30 17:32:00,
2013-03-30 12:37:00,39.3,36.3,29.85,SSW,210,4.0,8.0,89,0.00,,RA,0.00,44.00,VWS V14.01,2013-03-30 17:37:00,
2013-03-30 12:42:00,39.2,36.2,29.84,SW,223,3.0,8.0,89,0.00,,RA,0.00,46.00,VWS V14.01,2013-03-30 17:42:00,
2013-03-30 12:47:00,39.2,36.2,29.84,SW,227,4.0,8.0,89,0.00,,RA,0.00,42.00,VWS V14.01,2013-03-30 17:47:00,
2013-03-30 12:52:00,39.4,36.4,29.84,SW,217,5.0,8.0,89,0.00,,RA,0.00,49.00,VWS V14.01,2013-03-30 17:52:00,
2013-03-30 12:57:00,39.3,36.3,29.84,SW,224,5.0,8.0,89,0.00,,RA,0.00,65.00,VWS V14.01,2013-03-30 17:57:00,
2013-03-30 13:02:00,39.3,36.3,29.84,SSW,211,7.0,7.0,89,0.00,,RA,0.00,72.00,VWS V14.01,2013-03-30 18:02:00,
2013-03-30 13:07:00,39.5,36.5,29.83,SW,218,5.0,8.0,89,0.00,,RA,0.00,69.00,VWS V14.01,2013-03-30 18:07:00,
2013-03-30 13:12:00,39.5,36.5,29.83,SW,217,4.0,10.0,89,0.00,,RA,0.00,62.00,VWS V14.01,2013-03-30 18:12:00,
2013-03-30 13:17:00,39.5,36.5,29.83,SW,221,5.0,10.0,89,0.00,,RA,0.00,77.00,VWS V14.01,2013-03-30 18:17:00,
2013-03-30 13:22:00,39.4,36.4,29.83,SW,219,7.0,10.0,89,0.00,,-RA,0.00,67.00,VWS V14.01,2013-03-30 18:22:00,
2013-03-30 13:27:00,39.4,36.4,29.83,SW,215,6.0,10.0,89,0.00,,-RA,0.00,62.00,VWS V14.01,2013-03-30 18:27:00,
2013-03-30 13:32:00,39.4,36.4,29.83,SW,231,6.0,8.0,89,0.00,,-RA,0.00,76.00,VWS V14.01,2013-03-30 18:32:00,
2013-03-30 13:37:00,39.4,36.4,29.83,SW,225,3.0,8.0,89,0.00,,-RA,0.00,62.00,VWS V14.01,2013-03-30 18:37:00,
2013-03-30 13:42:00,39.3,36.3,29.83,SW,221,6.0,9.0,89,0.00,,-RA,0.00,77.00,VWS V14.01,2013-03-30 18:42:00,
2013-03-30 13:47:00,39.3,36.3,29.83,SW,215,7.0,9.0,89,0.00,,-RA,0.00,88.00,VWS V14.01,2013-03-30 18:47:00,
2013-03-30 13:52:00,39.3,36.3,29.83,SW,219,7.0,9.0,89,0.00,,-RA,0.00,109.00,VWS V14.01,2013-03-30 18:52:00,
2013-03-30 13:57:00,39.3,36.3,29.82,SW,221,4.0,9.0,89,0.00,,-RA,0.00,81.00,VWS V14.01,2013-03-30 18:57:00,
2013-03-30 14:02:00,39.4,36.4,29.83,SW,217,7.0,8.0,89,0.00,,,0.00,109.00,VWS V14.01,2013-03-30 19:02:00,
2013-03-30 14:07:00,39.5,36.5,29.82,SSW,207,5.0,8.0,89,0.00,,,0.00,127.00,VWS V14.01,2013-03-30 19:07:00,
2013-03-30 14:12:00,39.5,36.5,29.82,SSW,213,5.0,8.0,89,0.00,,,0.00,135.00,VWS V14.01,2013-03-30 19:12:00,
2013-03-30 14:17:00,39.6,36.6,29.82,SW,221,6.0,9.0,89,0.00,,,0.00,132.00,VWS V14.01,2013-03-30 19:17:00,
2013-03-30 14:23:00,39.7,36.7,29.82,SSW,213,5.0,9.0,89,0.00,,,0.00,139.00,VWS V14.01,2013-03-30 19:23:00,
2013-03-30 14:28:00,39.7,36.7,29.82,SSW,209,6.0,9.0,89,0.00,,,0.00,134.00,VWS V14.01,2013-03-30 19:28:00,
2013-03-30 14:33:00,39.7,36.7,29.82,SSW,200,6.0,7.0,89,0.00,,,0.00,149.00,VWS V14.01,2013-03-30 19:33:00,
2013-03-30 14:38:00,39.8,36.8,29.82,SSW,209,3.0,8.0,89,0.00,,,0.00,130.00,VWS V14.01,2013-03-30 19:38:00,
2013-03-30 14:43:00,40.0,37.0,29.82,SW,223,6.0,8.0,89,0.00,,,0.00,125.00,VWS V14.01,2013-03-30 19:43:00,
2013-03-30 14:48:00,39.9,36.9,29.82,SW,234,6.0,8.0,89,0.00,,,0.00,116.00,VWS V14.01,2013-03-30 19:48:00,
2013-03-30 14:53:00,40.0,37.0,29.82,SW,236,5.0,8.0,89,0.00,,,0.00,113.00,VWS V14.01,2013-03-30 19:53:00,
2013-03-30 14:58:00,40.0,37.0,29.82,SSW,211,4.0,8.0,89,0.00,,,0.00,104.00,VWS V14.01,2013-03-30 19:58:00,
2013-03-30 15:03:00,39.9,36.9,29.82,SW,230,5.0,5.0,89,0.00,,,0.00,100.00,VWS V14.01,2013-03-30 20:03:00,
2013-03-30 15:08:00,39.9,36.9,29.82,SW,226,1.0,5.0,89,0.00,,,0.00,95.00,VWS V14.01,2013-03-30 20:08:00,
2013-03-30 15:13:00,40.0,37.0,29.82,SW,231,3.0,5.0,89,0.00,,,0.00,113.00,VWS V14.01,2013-03-30 20:13:00,
2013-03-30 15:18:00,40.0,37.0,29.82,SW,230,2.0,5.0,89,0.00,,,0.00,114.00,VWS V14.01,2013-03-30 20:18:00,
2013-03-30 15:23:00,40.2,36.9,29.82,SW,225,1.0,5.0,88,0.00,,,0.00,142.00,VWS V14.01,2013-03-30 20:23:00,
2013-03-30 15:28:00,40.2,36.9,29.82,WSW,237,1.0,5.0,88,0.00,,,0.00,125.00,VWS V14.01,2013-03-30 20:28:00,
2013-03-30 15:33:00,40.3,37.0,29.82,West,259,3.0,5.0,88,0.00,,,0.00,144.00,VWS V14.01,2013-03-30 20:33:00,
2013-03-30 15:38:00,40.4,37.4,29.81,WSW,257,2.0,5.0,89,0.00,,,0.00,128.00,VWS V14.01,2013-03-30 20:38:00,
2013-03-30 15:43:00,40.4,37.4,29.81,SW,229,4.0,5.0,89,0.00,,,0.00,120.00,VWS V14.01,2013-03-30 20:43:00,
2013-03-30 15:48:00,40.5,37.5,29.81,WSW,248,4.0,6.0,89,0.00,,,0.00,153.00,VWS V14.01,2013-03-30 20:48:00,
2013-03-30 15:53:00,40.6,37.6,29.81,WSW,243,3.0,6.0,89,0.00,,,0.00,195.00,VWS V14.01,2013-03-30 20:53:00,
2013-03-30 15:58:00,40.7,37.4,29.81,WSW,242,3.0,6.0,88,0.00,,,0.00,165.00,VWS V14.01,2013-03-30 20:58:00,
2013-03-30 16:03:00,40.6,37.3,29.81,SW,227,5.0,5.0,88,0.00,,,0.00,144.00,VWS V14.01,2013-03-30 21:03:00,
2013-03-30 16:08:00,40.6,37.3,29.81,SW,234,3.0,5.0,88,0.00,,,0.00,135.00,VWS V14.01,2013-03-30 21:08:00,
2013-03-30 16:13:00,40.7,37.4,29.81,WSW,248,2.0,5.0,88,0.00,,,0.00,105.00,VWS V14.01,2013-03-30 21:13:00,
2013-03-30 16:18:00,40.5,37.5,29.81,West,259,2.0,5.0,89,0.00,,,0.00,121.00,VWS V14.01,2013-03-30 21:18:00,
2013-03-30 16:23:00,40.7,37.4,29.81,WSW,257,2.0,5.0,88,0.00,,,0.00,91.00,VWS V14.01,2013-03-30 21:23:00,
2013-03-30 16:28:00,40.8,37.5,29.81,WSW,257,2.0,5.0,88,0.00,,,0.00,109.00,VWS V14.01,2013-03-30 21:28:00,
2013-03-30 16:33:00,40.9,37.6,29.81,WSW,257,0.0,3.0,88,0.00,,,0.00,116.00,VWS V14.01,2013-03-30 21:33:00,
2013-03-30 16:38:00,41.0,37.7,29.81,West,281,1.0,4.0,88,0.00,,,0.00,79.00,VWS V14.01,2013-03-30 21:38:00,
2013-03-30 16:43:00,41.0,37.7,29.81,WNW,296,5.0,6.0,88,0.00,,,0.00,116.00,VWS V14.01,2013-03-30 21:43:00,
2013-03-30 16:48:00,41.2,37.9,29.81,WNW,297,5.0,6.0,88,0.00,,,0.00,107.00,VWS V14.01,2013-03-30 21:48:00,
2013-03-30 16:53:00,41.3,38.0,29.81,WNW,284,4.0,6.0,88,0.00,,,0.00,91.00,VWS V14.01,2013-03-30 21:53:00,
2013-03-30 16:58:00,41.3,38.0,29.81,NW,304,5.0,6.0,88,0.00,,,0.00,84.00,VWS V14.01,2013-03-30 21:58:00,
2013-03-30 17:03:00,41.4,38.1,29.81,WNW,288,4.0,5.0,88,0.00,,,0.00,77.00,VWS V14.01,2013-03-30 22:03:00,
2013-03-30 17:08:00,41.4,38.1,29.81,NW,311,5.0,7.0,88,0.00,,,0.00,54.00,VWS V14.01,2013-03-30 22:08:00,
2013-03-30 17:13:00,41.4,38.4,29.81,NNW,327,2.0,7.0,89,0.00,,,0.00,69.00,VWS V14.01,2013-03-30 22:13:00,
2013-03-30 17:18:00,41.4,38.4,29.81,NW,313,3.0,7.0,89,0.00,,,0.00,97.00,VWS V14.01,2013-03-30 22:18:00,
2013-03-30 17:23:00,41.5,38.8,29.81,NW,307,3.0,7.0,90,0.00,,,0.00,105.00,VWS V14.01,2013-03-30 22:23:00,
2013-03-30 17:28:00,41.6,38.9,29.81,NW,307,3.0,7.0,90,0.00,,,0.00,74.00,VWS V14.01,2013-03-30 22:28:00,
2013-03-30 17:33:00,41.6,38.9,29.81,NW,307,0.0,3.0,90,0.00,,,0.00,65.00,VWS V14.01,2013-03-30 22:33:00,
2013-03-30 17:38:00,41.6,38.9,29.81,NW,307,0.0,4.0,90,0.00,,,0.00,65.00,VWS V14.01,2013-03-30 22:38:00,
2013-03-30 17:43:00,41.5,38.8,29.81,NW,321,2.0,4.0,90,0.00,,,0.00,65.00,VWS V14.01,2013-03-30 22:43:00,
2013-03-30 17:48:00,41.6,38.9,29.81,NW,315,2.0,5.0,90,0.00,,,0.00,69.00,VWS V14.01,2013-03-30 22:48:00,
2013-03-30 17:53:00,41.6,38.9,29.81,NW,309,0.0,6.0,90,0.00,,,0.00,60.00,VWS V14.01,2013-03-30 22:53:00,
2013-03-30 17:58:00,41.5,38.8,29.81,West,273,4.0,6.0,90,0.00,,,0.00,56.00,VWS V14.01,2013-03-30 22:58:00,
2013-03-30 18:03:00,41.4,38.7,29.81,WNW,299,7.0,7.0,90,0.00,,,0.00,49.00,VWS V14.01,2013-03-30 23:03:00,
2013-03-30 18:08:00,41.5,38.8,29.81,WNW,286,4.0,7.0,90,0.00,,,0.00,44.00,VWS V14.01,2013-03-30 23:08:00,
2013-03-30 18:13:00,41.4,38.7,29.81,WNW,286,4.0,7.0,90,0.00,,,0.00,37.00,VWS V14.01,2013-03-30 23:13:00,
2013-03-30 18:18:00,41.4,38.7,29.82,West,281,2.0,7.0,90,0.00,,,0.00,39.00,VWS V14.01,2013-03-30 23:18:00,
2013-03-30 18:23:00,41.3,38.6,29.82,NW,307,6.0,7.0,90,0.00,,,0.00,33.00,VWS V14.01,2013-03-30 23:23:00,
2013-03-30 18:28:00,41.3,38.6,29.82,NW,313,2.0,7.0,90,0.59,,,0.00,28.00,VWS V14.01,2013-03-30 23:28:00,
2013-03-30 18:33:00,41.3,38.6,29.82,NW,313,2.0,4.0,90,0.59,,,0.00,25.00,VWS V14.01,2013-03-30 23:33:00,
2013-03-30 18:38:00,41.2,38.5,29.82,NW,313,0.0,4.0,90,0.59,,,0.00,25.00,VWS V14.01,2013-03-30 23:38:00,
2013-03-30 18:43:00,41.1,38.4,29.82,NW,313,1.0,4.0,90,0.59,,,0.00,23.00,VWS V14.01,2013-03-30 23:43:00,
2013-03-30 18:48:00,41.1,38.4,29.82,NW,313,0.0,4.0,90,0.59,,,0.00,25.00,VWS V14.01,2013-03-30 23:48:00,
2013-03-30 18:53:00,41.1,38.4,29.81,NW,313,0.0,4.0,90,0.59,,,0.00,28.00,VWS V14.01,2013-03-30 23:53:00,
2013-03-30 18:58:00,41.1,38.4,29.81,NW,313,0.0,4.0,90,0.59,,,0.00,25.00,VWS V14.01,2013-03-30 23:58:00,
2013-03-30 19:03:00,41.1,38.4,29.81,NW,304,1.0,5.0,90,0.59,,,0.00,35.00,VWS V14.01,2013-03-31 00:03:00,
2013-03-30 19:08:00,41.1,38.1,29.81,NW,304,0.0,5.0,89,0.59,,,0.00,32.00,VWS V14.01,2013-03-31 00:08:00,
2013-03-30 19:13:00,41.1,38.1,29.81,NW,304,0.0,5.0,89,0.59,,,0.00,23.00,VWS V14.01,2013-03-31 00:13:00,
2013-03-30 19:18:00,41.0,38.3,29.81,NW,304,0.0,5.0,90,0.59,,,0.00,16.00,VWS V14.01,2013-03-31 00:18:00,
2013-03-30 19:23:00,40.8,38.1,29.81,NW,304,0.0,5.0,90,0.59,,,0.00,11.00,VWS V14.01,2013-03-31 00:23:00,
2013-03-30 19:28:00,40.7,38.0,29.80,NW,304,0.0,5.0,90,0.59,,,0.00,5.00,VWS V14.01,2013-03-31 00:28:00,
2013-03-30 19:33:00,40.5,37.8,29.81,NW,304,0.0,0.0,90,0.00,,,0.00,0.00,VWS V14.01,2013-03-31 00:33:00,
2013-03-30 19:38:00,40.1,37.4,29.81,NW,304,0.0,1.0,90,0.00,,,0.00,0.00,VWS V14.01,2013-03-31 00:38:00,
2013-03-30 19:43:00,39.7,37.0,29.81,NW,304,0.0,2.0,90,0.00,,,0.00,0.00,VWS V14.01,2013-03-31 00:43:00,
2013-03-30 19:48:00,39.1,36.4,29.81,NW,304,0.0,2.0,90,0.00,,,0.00,0.00,VWS V14.01,2013-03-31 00:48:00,
2013-03-30 19:53:00,38.8,36.1,29.81,NW,304,1.0,2.0,90,0.00,,,0.00,0.00,VWS V14.01,2013-03-31 00:53:00,
2013-03-30 19:58:00,38.8,36.1,29.81,NW,304,0.0,2.0,90,0.00,,,0.00,0.00,VWS V14.01,2013-03-31 00:58:00,
2013-03-30 20:03:00,38.8,36.1,29.80,NW,304,0.0,1.0,90,0.00,,CLR,0.00,0.00,VWS V14.01,2013-03-31 01:03:00,
2013-03-30 20:08:00,38.8,36.1,29.80,NW,304,0.0,1.0,90,0.00,,CLR,0.00,0.00,VWS V14.01,2013-03-31 01:08:00,
2013-03-30 20:13:00,38.8,36.1,29.80,NW,304,0.0,1.0,90,0.00,,CLR,0.00,0.00,VWS V14.01,2013-03-31 01:13:00,
2013-03-30 20:18:00,38.8,36.1,29.80,NW,304,0.0,1.0,90,0.00,,CLR,0.00,0.00,VWS V14.01,2013-03-31 01:18:00,
2013-03-30 20:23:00,38.7,36.0,29.80,NW,304,0.0,1.0,90,0.00,,,0.00,0.00,VWS V14.01,2013-03-31 01:23:00,
2013-03-30 20:28:00,38.7,36.0,29.80,NW,304,0.0,1.0,90,0.00,,,0.00,0.00,VWS V14.01,2013-03-31 01:28:00,
2013-03-30 20:33:00,38.6,35.9,29.80,NW,304,0.0,0.0,90,0.00,,,0.00,0.00,VWS V14.01,2013-03-31 01:33:00,
2013-03-30 20:38:00,37.9,35.2,29.80,NW,304,0.0,0.0,90,0.00,,,0.00,0.00,VWS V14.01,2013-03-31 01:38:00,
2013-03-30 20:44:00,37.6,34.9,29.80,NW,304,0.0,0.0,90,0.00,,,0.00,0.00,VWS V14.01,2013-03-31 01:44:00,
2013-03-30 20:49:00,37.8,35.1,29.80,NW,304,0.0,0.0,90,0.00,,,0.00,0.00,VWS V14.01,2013-03-31 01:49:00,
2013-03-30 20:54:00,37.8,35.1,29.80,NW,304,0.0,0.0,90,0.00,,,0.00,0.00,VWS V14.01,2013-03-31 01:54:00,
2013-03-30 20:59:00,37.7,35.0,29.80,NW,304,0.0,0.0,90,0.00,,,0.00,0.00,VWS V14.01,2013-03-31 01:59:00,
2013-03-30 21:04:00,37.3,34.6,29.80,NW,304,0.0,0.0,90,0.00,,,0.00,0.00,VWS V14.01,2013-03-31 02:04:00,
2013-03-30 21:09:00,36.3,33.7,29.80,NW,304,0.0,0.0,90,0.00,,,0.00,0.00,VWS V14.01,2013-03-31 02:09:00,
2013-03-30 21:14:00,35.5,32.9,29.80,NW,304,0.0,0.0,90,0.00,,,0.00,0.00,VWS V14.01,2013-03-31 02:14:00,
2013-03-30 21:19:00,35.2,32.6,29.80,NW,304,0.0,0.0,90,0.00,,,0.00,0.00,VWS V14.01,2013-03-31 02:19:00,
2013-03-30 21:24:00,35.1,32.5,29.80,NW,304,0.0,0.0,90,0.00,,,0.00,0.00,VWS V14.01,2013-03-31 02:24:00,
2013-03-30 21:29:00,34.8,32.2,29.80,NW,304,1.0,2.0,90,0.00,,,0.00,0.00,VWS V14.01,2013-03-31 02:29:00,
2013-03-30 21:34:00,34.9,32.3,29.80,NW,304,1.0,3.0,90,0.00,,,0.00,0.00,VWS V14.01,2013-03-31 02:34:00,
2013-03-30 21:39:00,34.9,32.3,29.80,SW,234,2.0,3.0,90,0.00,,,0.00,0.00,VWS V14.01,2013-03-31 02:39:00,
2013-03-30 21:44:00,35.7,32.8,29.80,SW,234,1.0,3.0,89,0.00,,,0.00,0.00,VWS V14.01,2013-03-31 02:44:00,
2013-03-30 21:49:00,36.0,33.1,29.81,SW,234,1.0,3.0,89,0.00,,,0.00,0.00,VWS V14.01,2013-03-31 02:49:00,
2013-03-30 21:54:00,36.3,33.4,29.81,SW,234,2.0,3.0,89,0.00,,,0.00,0.00,VWS V14.01,2013-03-31 02:54:00,
2013-03-30 21:59:00,36.2,33.3,29.81,SW,234,1.0,3.0,89,0.00,,,0.00,0.00,VWS V14.01,2013-03-31 02:59:00,
2013-03-30 22:04:00,36.1,33.2,29.81,SW,234,2.0,3.0,89,0.00,,,0.00,0.00,VWS V14.01,2013-03-31 03:04:00,
2013-03-30 22:09:00,36.2,33.3,29.81,SW,232,3.0,3.0,89,0.00,,,0.00,0.00,VWS V14.01,2013-03-31 03:09:00,
2013-03-30 22:14:00,36.5,33.6,29.81,SW,221,2.0,3.0,89,0.00,,,0.00,0.00,VWS V14.01,2013-03-31 03:14:00,
2013-03-30 22:19:00,36.6,33.7,29.80,SW,215,2.0,4.0,89,0.00,,,0.00,0.00,VWS V14.01,2013-03-31 03:19:00,
2013-03-30 22:24:00,36.6,33.7,29.81,SW,215,2.0,4.0,89,0.00,,,0.00,0.00,VWS V14.01,2013-03-31 03:24:00,
2013-03-30 22:29:00,36.5,33.6,29.80,SW,215,2.0,4.0,89,0.00,,,0.00,0.00,VWS V14.01,2013-03-31 03:29:00,
2013-03-30 22:34:00,36.5,33.6,29.80,SW,215,3.0,3.0,89,0.00,,,0.00,0.00,VWS V14.01,2013-03-31 03:34:00,
2013-03-30 22:39:00,36.5,33.6,29.80,SW,214,4.0,4.0,89,0.00,,,0.00,0.00,VWS V14.01,2013-03-31 03:39:00,
2013-03-30 22:44:00,36.5,33.6,29.80,SSW,194,3.0,5.0,89,0.00,,,0.00,0.00,VWS V14.01,2013-03-31 03:44:00,
2013-03-30 22:49:00,36.5,33.6,29.80,SSW,195,3.0,5.0,89,0.00,,,0.00,0.00,VWS V14.01,2013-03-31 03:49:00,
2013-03-30 22:54:00,36.4,33.5,29.80,SSW,195,3.0,5.0,89,0.00,,,0.00,0.00,VWS V14.01,2013-03-31 03:54:00,
2013-03-30 22:59:00,36.6,33.7,29.80,SSW,196,1.0,5.0,89,0.00,,,0.00,0.00,VWS V14.01,2013-03-31 03:59:00,
2013-03-30 23:00:00,36.6,33.7,29.80,SSW,196,3.0,3.0,89,0.00,,,0.00,0.00,VWS V14.01,2013-03-31 04:00:00,
2013-03-30 23:05:00,36.5,33.6,29.80,SSW,196,3.0,3.0,89,0.00,,,0.00,0.00,VWS V14.01,2013-03-31 04:05:00,
2013-03-30 23:10:00,36.6,33.7,29.79,SSW,206,3.0,5.0,89,0.00,,,0.00,0.00,VWS V14.01,2013-03-31 04:10:00,
2013-03-30 23:15:00,36.8,33.9,29.79,SSW,199,1.0,5.0,89,0.00,,,0.00,0.00,VWS V14.01,2013-03-31 04:15:00,
2013-03-30 23:20:00,36.7,33.8,29.79,SSW,199,2.0,5.0,89,0.00,,,0.00,0.00,VWS V14.01,2013-03-31 04:20:00,
2013-03-30 23:25:00,36.8,33.9,29.79,SSW,199,2.0,5.0,89,0.00,,,0.00,0.00,VWS V14.01,2013-03-31 04:25:00,
2013-03-30 23:30:00,36.8,33.9,29.79,SSW,199,3.0,4.0,89,0.00,,,0.00,0.00,VWS V14.01,2013-03-31 04:30:00,
2013-03-30 23:35:00,36.8,33.9,29.79,SSW,199,2.0,4.0,89,0.00,,,0.00,0.00,VWS V14.01,2013-03-31 04:35:00,
2013-03-30 23:40:00,36.8,33.9,29.79,SSW,199,3.0,4.0,89,0.00,,,0.00,0.00,VWS V14.01,2013-03-31 04:40:00,
2013-03-30 23:45:00,36.6,33.7,29.78,SSW,199,2.0,4.0,89,0.00,,,0.00,0.00,VWS V14.01,2013-03-31 04:45:00,
2013-03-30 23:50:00,36.6,33.7,29.78,SSW,199,2.0,4.0,89,0.00,,,0.00,0.00,VWS V14.01,2013-03-31 04:50:00,
2013-03-30 23:55:00,36.4,33.5,29.78,SSW,200,3.0,4.0,89,0.00,,,0.00,0.00,VWS V14.01,2013-03-31 04:55:00,